Flag for U.S.A. Weather past 2 weeks in Montpelier, Vermont, U.S.A.

Now
81 °F

Scattered clouds.


Feels Like: 82 °F
Forecast: 64 / 83 °F
Wind: 3 mph from Northwest

Location: Knapp State Airport

Current Time: Sep 1, 2014 at 5:34:48 PM

Latest Report: Sep 1, 2014 at 4:51 PM


Visibility: 10 mi

Pressure: 29.95 "Hg

Humidity: 49%

Dew point: 60 °F

Location of MontpelierLocation

Historic Weather in Montpelier — Graph

°F

Montpelier temperature yesterday

Maximum temperature yesterday: 74 °F (at 11:51 AM)
Minimum temperature yesterday: 64 °F (at 1:51 AM)
Average temperature yesterday: 69 °F

Past Weeks' High & Low Weather Summary

 TemperatureHumidityPressure
High82 °F (Aug 26, 1:51 PM)100% (Aug 19, 1:51 AM)30.27 "Hg (Aug 19, 1:51 AM)
Low45 °F (Aug 19, 3:51 AM)35% (Aug 26, 1:51 PM)29.88 "Hg (Aug 18, 3:51 AM)
Average63 °F80%30.09 "Hg
* Reported Aug 17 3:51 PM — Sep 1 3:51 PM, Montpelier, Weather by CustomWeather, © 2014

Note: Actual official high and low records may vary slightly from our data, if they occured in-between our weather recording intervals... More about our weather records

Advertising

Montpelier weather history for previous 24 hours

 ConditionsComfort  
Time TempWeatherWind HumidityBarometerVisibility
3:51 PM
Sep 1
81 °FSunny.7 mph53%29.97 "Hg10 mi
2:51 PM81 °FScattered clouds.8 mph51%29.98 "Hg10 mi
1:51 PM80 °FBroken clouds.7 mph58%29.99 "Hg10 mi
12:51 PM79 °FBroken clouds.8 mph58%29.99 "Hg10 mi
11:51 AM79 °FSunny.10 mph56%30.00 "Hg10 mi
10:51 AM77 °FMostly cloudy.5 mph62%30.01 "Hg10 mi
9:51 AM75 °FPassing clouds.3 mph76%30.01 "Hg10 mi
8:51 AM66 °FScattered clouds.3 mph96%30.02 "Hg8 mi
7:51 AM62 °FFog.No wind100%30.02 "Hg1 mi
7:04 AM61 °FFog.No wind100%30.03 "Hg2 mi
6:51 AM61 °FFog.No wind100%30.02 "Hg3 mi
6:04 AM61 °FFog.No wind100%30.02 "Hg1 mi
5:51 AM60 °FFog.No wind100%30.01 "Hg1 mi
4:51 AM61 °FFog.5 mph100%30.00 "Hg5 mi
4:01 AM61 °FFog.3 mph100%30.01 "Hg2 mi
2:51 AM63 °FFog.3 mph100%29.98 "Hg0 mi
1:51 AM65 °FClear.No wind97%29.97 "Hg9 mi
12:51 AM65 °FPassing clouds.No wind100%29.98 "Hg7 mi
11:59 PM
Aug 31
64 °FFog.3 mph100%29.98 "Hg2 mi
10:51 PM66 °FClear.3 mph96%29.98 "Hg9 mi
9:51 PM69 °FOvercast.5 mph90%29.98 "Hg10 mi
8:51 PM69 °FPassing clouds.6 mph93%29.98 "Hg10 mi
7:51 PM69 °FCloudy.No wind93%29.98 "Hg10 mi
6:51 PM70 °FLight rain. Fog.3 mph90%29.97 "Hg6 mi
5:51 PM71 °FPartly sunny.5 mph87%29.97 "Hg10 mi
Weather by CustomWeather, © 2014

See weather overviewHow to use our weather pages